User: anonymous   Login
Location: Toronto
(43.6672°N, 79.4170°W)
Time: 22:21:49
(UTC-05:00)
Language:

ISS - Orbit

View from above orbital plane
View from above orbital plane
View from above satellite
View from above satellite

Ground track
Ground track

The orbit data is extracted from the following two-line orbital elements,

1 25544U 98067A   15026.60876139  .00009865  00000-0  15877-3 0  7834
2 25544 051.6477 070.9388 0005672 306.9794 188.9474 15.53640791926004
Epoch (UTC): 26 January 2015 14:36:36
Eccentricity: 0.0005672
inclination: 51.6477°
perigee height: 402 km
apogee height: 410 km
right ascension of ascending node: 70.9388°
argument of perigee: 306.9794°
revolutions per day: 15.53640791
mean anomaly at epoch: 188.9474°
orbit number at epoch: 92600

The dashed part of the orbit path shows where the satellite is in the earth's shadow,  

DLR